AAL942 KSDF-KDFW

Flight info

Callsign AAL942
Flight time 2h 3m
Altitude 36000
Route HIDEY1 RAMRD LIT FEWWW BRDJE5
Aircraft A319/M-SDE3FGHIRWY/LB1

Departure

Time 2026-05-05 23:50
Airport Louisville Muhammad Ali International Airport (KSDF)

Arrival

Time 2026-05-06 01:53
Airport Dallas Fort Worth International Airport (KDFW)
Time Latitude Longitude Altitude Speed Heading
2026-05-05 23:07 38.18317 -85.74063 482 ft 0 kts 285°
2026-05-05 23:38 38.18317 -85.74061 487 ft 2 kts 285°
2026-05-05 23:38 38.18308 -85.74030 489 ft 4 kts 307°
2026-05-05 23:39 38.18292 -85.74012 489 ft 2 kts 330°
2026-05-05 23:39 38.18269 -85.73995 486 ft 4 kts 330°
2026-05-05 23:39 38.18246 -85.73978 479 ft 4 kts 330°
2026-05-05 23:39 38.18225 -85.73963 486 ft 4 kts 300°
2026-05-05 23:40 38.18226 -85.73937 480 ft 4 kts 241°
2026-05-05 23:40 38.18238 -85.73910 483 ft 3 kts 239°
2026-05-05 23:40 38.18239 -85.73907 489 ft 0 kts 239°
2026-05-05 23:43 38.18221 -85.73946 489 ft 9 kts 239°
2026-05-05 23:43 38.18187 -85.74019 488 ft 10 kts 239°
2026-05-05 23:43 38.18148 -85.74100 489 ft 12 kts 239°
2026-05-05 23:44 38.18104 -85.74191 489 ft 11 kts 234°
2026-05-05 23:44 38.18038 -85.74202 486 ft 11 kts 175°
2026-05-05 23:44 38.18001 -85.74273 485 ft 12 kts 278°
2026-05-05 23:44 38.17992 -85.74366 488 ft 11 kts 214°
2026-05-05 23:45 38.17925 -85.74365 488 ft 10 kts 166°
2026-05-05 23:45 38.17809 -85.74325 481 ft 20 kts 165°
2026-05-05 23:45 38.17676 -85.74279 489 ft 20 kts 166°
2026-05-05 23:45 38.17546 -85.74239 483 ft 19 kts 165°
2026-05-05 23:46 38.17406 -85.74192 481 ft 21 kts 165°
2026-05-05 23:46 38.17233 -85.74134 481 ft 31 kts 165°
2026-05-05 23:46 38.17024 -85.74064 482 ft 30 kts 165°
2026-05-05 23:46 38.16832 -85.74001 481 ft 28 kts 165°
2026-05-05 23:47 38.16644 -85.73940 484 ft 27 kts 166°
2026-05-05 23:47 38.16467 -85.73882 481 ft 26 kts 166°
2026-05-05 23:47 38.16297 -85.73827 484 ft 25 kts 166°
2026-05-05 23:47 38.16125 -85.73771 483 ft 25 kts 165°
2026-05-05 23:48 38.15969 -85.73719 479 ft 20 kts 165°
2026-05-05 23:48 38.15872 -85.73719 486 ft 12 kts 231°
2026-05-05 23:48 38.15849 -85.73825 482 ft 14 kts 257°
2026-05-05 23:48 38.15841 -85.73932 476 ft 9 kts 312°
2026-05-05 23:49 38.15861 -85.73942 480 ft 0 kts 344°
2026-05-05 23:49 38.16015 -85.73994 479 ft 60 kts 345°
2026-05-05 23:49 38.16649 -85.74201 480 ft 125 kts 346°
2026-05-05 23:49 38.17659 -85.74531 616 ft 164 kts 345°
2026-05-05 23:50 38.18758 -85.74912 1267 ft 165 kts 344°
2026-05-05 23:50 38.19868 -85.75321 1930 ft 167 kts 343°
2026-05-05 23:50 38.20987 -85.75863 2421 ft 182 kts 329°
2026-05-05 23:50 38.22145 -85.76728 2789 ft 204 kts 327°
2026-05-05 23:51 38.23441 -85.77695 3203 ft 229 kts 327°
2026-05-05 23:51 38.24872 -85.78759 3844 ft 245 kts 325°
2026-05-05 23:51 38.26372 -85.79872 4716 ft 254 kts 323°
2026-05-05 23:51 38.27799 -85.81231 5468 ft 259 kts 303°
2026-05-05 23:52 38.28548 -85.83276 6141 ft 257 kts 271°
2026-05-05 23:52 38.28523 -85.85533 6957 ft 257 kts 260°
2026-05-05 23:52 38.28329 -85.87807 7894 ft 259 kts 252°
2026-05-05 23:52 38.27643 -85.89898 8822 ft 257 kts 234°
2026-05-05 23:53 38.26456 -85.91581 9720 ft 257 kts 218°
2026-05-05 23:53 38.24991 -85.92946 10390 ft 270 kts 218°
2026-05-05 23:53 38.23406 -85.94421 10668 ft 294 kts 218°
2026-05-05 23:53 38.21681 -85.96011 10973 ft 317 kts 217°
2026-05-05 23:54 38.19707 -85.97382 11587 ft 329 kts 209°
2026-05-05 23:54 38.17629 -85.98647 12279 ft 334 kts 210°
2026-05-05 23:54 38.15508 -85.99929 12992 ft 340 kts 210°
2026-05-05 23:54 38.13355 -86.01224 13704 ft 343 kts 210°
2026-05-05 23:55 38.11180 -86.02528 14364 ft 348 kts 210°
2026-05-05 23:55 38.08983 -86.03849 15000 ft 352 kts 210°
2026-05-05 23:55 38.06748 -86.05191 15636 ft 359 kts 208°
2026-05-05 23:55 38.04365 -86.06261 16287 ft 367 kts 203°
2026-05-05 23:56 38.01927 -86.07274 16946 ft 371 kts 203°
2026-05-05 23:56 37.99461 -86.08292 17597 ft 375 kts 203°
2026-05-05 23:56 37.96966 -86.09320 18207 ft 379 kts 203°
2026-05-05 23:56 37.94443 -86.10360 18832 ft 383 kts 203°
2026-05-05 23:57 37.91895 -86.11410 19433 ft 387 kts 204°
2026-05-05 23:57 37.89324 -86.12473 20018 ft 390 kts 204°
2026-05-05 23:57 37.86732 -86.13543 20593 ft 394 kts 204°
2026-05-05 23:57 37.84121 -86.14623 21118 ft 396 kts 204°
2026-05-05 23:58 37.81489 -86.15711 21631 ft 400 kts 205°
2026-05-05 23:58 37.78827 -86.16808 22117 ft 404 kts 205°
2026-05-05 23:58 37.76147 -86.17913 22618 ft 407 kts 205°
2026-05-05 23:58 37.73447 -86.19021 23103 ft 409 kts 205°
2026-05-05 23:59 37.70733 -86.20130 23574 ft 412 kts 205°
2026-05-05 23:59 37.67997 -86.21246 24027 ft 415 kts 205°
2026-05-05 23:59 37.65283 -86.22354 24466 ft 417 kts 206°
2026-05-05 23:59 37.62510 -86.23492 24883 ft 420 kts 206°
2026-05-06 00:00 37.59718 -86.24640 25263 ft 424 kts 206°
2026-05-06 00:00 37.56904 -86.25796 25685 ft 427 kts 206°
2026-05-06 00:00 37.54065 -86.26960 26075 ft 430 kts 206°
2026-05-06 00:00 37.51210 -86.28124 26456 ft 433 kts 206°
2026-05-06 00:01 37.48328 -86.29296 26807 ft 436 kts 206°
2026-05-06 00:01 37.45430 -86.30475 27164 ft 439 kts 206°
2026-05-06 00:01 37.42469 -86.31544 27512 ft 449 kts 201°
2026-05-06 00:01 37.39402 -86.32349 27865 ft 452 kts 201°
2026-05-06 00:02 37.36310 -86.33152 28192 ft 455 kts 200°
2026-05-06 00:02 37.33203 -86.33957 28495 ft 458 kts 201°
2026-05-06 00:02 37.30072 -86.34769 28800 ft 461 kts 201°
2026-05-06 00:02 37.26926 -86.35585 29108 ft 463 kts 201°
2026-05-06 00:03 37.23761 -86.36404 29394 ft 465 kts 201°
2026-05-06 00:03 37.20584 -86.37227 29748 ft 466 kts 201°
2026-05-06 00:03 37.17412 -86.38044 30138 ft 466 kts 201°
2026-05-06 00:03 37.14237 -86.38854 30533 ft 466 kts 201°
2026-05-06 00:04 37.11063 -86.39665 30939 ft 465 kts 201°
2026-05-06 00:04 37.07894 -86.40479 31365 ft 464 kts 202°
2026-05-06 00:04 37.04743 -86.41293 31761 ft 463 kts 202°
2026-05-06 00:04 37.01590 -86.42108 32159 ft 462 kts 202°
2026-05-06 00:05 36.95820 -86.44901 32878 ft 430 kts 224°
2026-05-06 00:05 36.93495 -86.47129 33278 ft 414 kts 233°
2026-05-06 00:05 36.91591 -86.49748 33656 ft 401 kts 243°
2026-05-06 00:06 36.90130 -86.52642 34064 ft 388 kts 252°
2026-05-06 00:06 36.89050 -86.55686 34486 ft 382 kts 255°
2026-05-06 00:06 36.88019 -86.58741 34796 ft 381 kts 255°
2026-05-06 00:07 36.85952 -86.64811 34868 ft 379 kts 255°
2026-05-06 00:07 36.83889 -86.70852 34870 ft 378 kts 255°
2026-05-06 00:08 36.81832 -86.76883 34869 ft 377 kts 255°
2026-05-06 00:08 36.79775 -86.82902 34875 ft 376 kts 254°
2026-05-06 00:09 36.77732 -86.88851 34878 ft 372 kts 254°
2026-05-06 00:09 36.75702 -86.94775 34869 ft 371 kts 254°
2026-05-06 00:10 36.73683 -87.00646 34868 ft 370 kts 254°
2026-05-06 00:10 36.71648 -87.06545 34860 ft 371 kts 254°
2026-05-06 00:11 36.69596 -87.12485 34858 ft 371 kts 254°
2026-05-06 00:11 36.67572 -87.18334 34859 ft 370 kts 254°
2026-05-06 00:12 36.65534 -87.24215 34849 ft 370 kts 254°
2026-05-06 00:12 36.63483 -87.30128 34849 ft 369 kts 254°
2026-05-06 00:13 36.61452 -87.35952 34850 ft 369 kts 254°
2026-05-06 00:13 36.59408 -87.41800 34850 ft 368 kts 254°
2026-05-06 00:14 36.57372 -87.47632 34865 ft 367 kts 254°
2026-05-06 00:14 36.55334 -87.53462 34878 ft 367 kts 254°
2026-05-06 00:15 36.53299 -87.59272 34880 ft 367 kts 254°
2026-05-06 00:15 36.51255 -87.65089 34881 ft 367 kts 254°
2026-05-06 00:16 36.49211 -87.70890 34871 ft 367 kts 254°
2026-05-06 00:16 36.47167 -87.76692 34867 ft 366 kts 254°
2026-05-06 00:17 36.45118 -87.82479 34869 ft 366 kts 254°
2026-05-06 00:17 36.43069 -87.88255 34861 ft 366 kts 254°
2026-05-06 00:18 36.41014 -87.94031 34860 ft 366 kts 254°
2026-05-06 00:18 36.38963 -87.99807 34859 ft 365 kts 254°
2026-05-06 00:19 36.36914 -88.05572 34854 ft 365 kts 254°
2026-05-06 00:19 36.34862 -88.11325 34849 ft 365 kts 254°
2026-05-06 00:20 36.32805 -88.17085 34854 ft 365 kts 254°
2026-05-06 00:20 36.30740 -88.22840 34849 ft 365 kts 254°
2026-05-06 00:21 36.28676 -88.28588 34852 ft 365 kts 254°
2026-05-06 00:21 36.26611 -88.34342 34851 ft 366 kts 254°
2026-05-06 00:22 36.24543 -88.40085 34850 ft 365 kts 254°
2026-05-06 00:22 36.22469 -88.45828 34850 ft 365 kts 254°
2026-05-06 00:23 36.20747 -88.50597 34850 ft 365 kts 254°
2026-05-06 00:23 36.18673 -88.56332 34849 ft 364 kts 254°
2026-05-06 00:24 36.16594 -88.62053 34850 ft 364 kts 253°
2026-05-06 00:24 36.14517 -88.67770 34845 ft 364 kts 253°
2026-05-06 00:25 36.12439 -88.73486 34840 ft 364 kts 253°
2026-05-06 00:25 36.10355 -88.79201 34866 ft 366 kts 253°
2026-05-06 00:25 36.09310 -88.82067 35236 ft 365 kts 253°
2026-05-06 00:26 36.08267 -88.84922 35634 ft 364 kts 253°
2026-05-06 00:26 36.07224 -88.87769 35808 ft 363 kts 253°
2026-05-06 00:26 36.06178 -88.90620 35843 ft 364 kts 253°
2026-05-06 00:27 36.04083 -88.96315 35830 ft 364 kts 253°
2026-05-06 00:27 36.02000 -89.02005 35833 ft 363 kts 253°
2026-05-06 00:28 35.99907 -89.07687 35832 ft 364 kts 253°
2026-05-06 00:28 35.97810 -89.13378 35833 ft 365 kts 253°
2026-05-06 00:29 35.95707 -89.19085 35835 ft 365 kts 253°
2026-05-06 00:29 35.93595 -89.24788 35834 ft 366 kts 253°
2026-05-06 00:30 35.91480 -89.30493 35842 ft 365 kts 253°
2026-05-06 00:30 35.89367 -89.36183 35845 ft 365 kts 253°
2026-05-06 00:31 35.87253 -89.41866 35846 ft 364 kts 253°
2026-05-06 00:31 35.85139 -89.47543 35843 ft 364 kts 253°
2026-05-06 00:32 35.83018 -89.53208 35839 ft 364 kts 253°
2026-05-06 00:32 35.80905 -89.58874 35840 ft 364 kts 253°
2026-05-06 00:33 35.78787 -89.64537 35841 ft 364 kts 253°
2026-05-06 00:33 35.76673 -89.70149 35838 ft 363 kts 253°
2026-05-06 00:34 35.74555 -89.75788 35835 ft 363 kts 253°
2026-05-06 00:34 35.72429 -89.81426 35834 ft 363 kts 253°
2026-05-06 00:35 35.70296 -89.87064 35834 ft 363 kts 253°
2026-05-06 00:35 35.68168 -89.92693 35828 ft 363 kts 253°
2026-05-06 00:36 35.66034 -89.98321 35825 ft 363 kts 253°
2026-05-06 00:36 35.63899 -90.03955 35825 ft 364 kts 253°
2026-05-06 00:37 35.61763 -90.09589 35824 ft 364 kts 253°
2026-05-06 00:37 35.59622 -90.15217 35826 ft 364 kts 252°
2026-05-06 00:38 35.57476 -90.20834 35825 ft 363 kts 252°
2026-05-06 00:38 35.55332 -90.26449 35826 ft 363 kts 252°
2026-05-06 00:39 35.53187 -90.32056 35825 ft 363 kts 252°
2026-05-06 00:39 35.51039 -90.37658 35827 ft 363 kts 252°
2026-05-06 00:40 35.48886 -90.43260 35823 ft 363 kts 252°
2026-05-06 00:40 35.46730 -90.48864 35824 ft 363 kts 252°
2026-05-06 00:41 35.44572 -90.54463 35823 ft 363 kts 252°
2026-05-06 00:41 35.42415 -90.60059 35825 ft 363 kts 252°
2026-05-06 00:42 35.40250 -90.65650 35828 ft 363 kts 252°
2026-05-06 00:42 35.38079 -90.71241 35826 ft 363 kts 252°
2026-05-06 00:43 35.35912 -90.76827 35824 ft 363 kts 252°
2026-05-06 00:43 35.33747 -90.82407 35832 ft 363 kts 252°
2026-05-06 00:44 35.31575 -90.87981 35829 ft 363 kts 252°
2026-05-06 00:44 35.29407 -90.93558 35831 ft 363 kts 252°
2026-05-06 00:45 35.27230 -90.99122 35830 ft 362 kts 252°
2026-05-06 00:45 35.25051 -91.04676 35829 ft 362 kts 252°
2026-05-06 00:46 35.22875 -91.10227 35831 ft 362 kts 252°
2026-05-06 00:46 35.20692 -91.15769 35827 ft 362 kts 252°
2026-05-06 00:47 35.18511 -91.21311 35831 ft 362 kts 252°
2026-05-06 00:47 35.16330 -91.26854 35823 ft 362 kts 252°
2026-05-06 00:48 35.14151 -91.32384 35822 ft 361 kts 252°
2026-05-06 00:48 35.11966 -91.37909 35820 ft 361 kts 252°
2026-05-06 00:49 35.09777 -91.43433 35820 ft 361 kts 252°
2026-05-06 00:49 35.07590 -91.48945 35820 ft 361 kts 251°
2026-05-06 00:50 35.05401 -91.54456 35819 ft 361 kts 251°
2026-05-06 00:50 35.03209 -91.59959 35821 ft 361 kts 251°
2026-05-06 00:51 35.01014 -91.65457 35822 ft 360 kts 251°
2026-05-06 00:51 34.98822 -91.70953 35819 ft 360 kts 251°
2026-05-06 00:52 34.96619 -91.76442 35816 ft 360 kts 251°
2026-05-06 00:52 34.94417 -91.81936 35812 ft 360 kts 251°
2026-05-06 00:53 34.92218 -91.87418 35809 ft 360 kts 251°
2026-05-06 00:53 34.90015 -91.92911 35811 ft 361 kts 251°
2026-05-06 00:54 34.87810 -91.98405 35809 ft 361 kts 251°
2026-05-06 00:54 34.85597 -92.03891 35814 ft 361 kts 251°
2026-05-06 00:55 34.83377 -92.09368 35814 ft 360 kts 251°
2026-05-06 00:55 34.81161 -92.14822 35814 ft 360 kts 251°
2026-05-06 00:56 34.79128 -92.20348 35814 ft 356 kts 254°
2026-05-06 00:56 34.77283 -92.25936 35813 ft 356 kts 254°
2026-05-06 00:57 34.75430 -92.31513 35812 ft 356 kts 254°
2026-05-06 00:57 34.73527 -92.37072 35809 ft 356 kts 253°
2026-05-06 00:58 34.71612 -92.42619 35810 ft 356 kts 253°
2026-05-06 00:58 34.69701 -92.48168 35804 ft 356 kts 253°
2026-05-06 00:59 34.67782 -92.53728 35801 ft 357 kts 253°
2026-05-06 00:59 34.65851 -92.59284 35802 ft 357 kts 253°
2026-05-06 01:00 34.63922 -92.64847 35805 ft 357 kts 253°
2026-05-06 01:00 34.61996 -92.70405 35806 ft 357 kts 253°
2026-05-06 01:01 34.60059 -92.75963 35807 ft 358 kts 253°
2026-05-06 01:01 34.58119 -92.81525 35806 ft 358 kts 253°
2026-05-06 01:02 34.56178 -92.87084 35809 ft 358 kts 253°
2026-05-06 01:02 34.54238 -92.92637 35809 ft 357 kts 253°
2026-05-06 01:03 34.52296 -92.98184 35810 ft 357 kts 253°
2026-05-06 01:03 34.50354 -93.03727 35808 ft 357 kts 253°
2026-05-06 01:04 34.48412 -93.09266 35808 ft 357 kts 253°
2026-05-06 01:04 34.46464 -93.14802 35810 ft 357 kts 253°
2026-05-06 01:05 34.44841 -93.19394 35809 ft 357 kts 253°
2026-05-06 01:05 34.42888 -93.24924 35809 ft 357 kts 253°
2026-05-06 01:06 34.40934 -93.30448 35807 ft 357 kts 253°
2026-05-06 01:06 34.38977 -93.35967 35804 ft 357 kts 252°
2026-05-06 01:07 34.37014 -93.41482 35799 ft 357 kts 253°
2026-05-06 01:07 34.35051 -93.47002 35798 ft 357 kts 253°
2026-05-06 01:08 34.33082 -93.52523 35797 ft 358 kts 253°
2026-05-06 01:08 34.31108 -93.58051 35794 ft 358 kts 253°
2026-05-06 01:09 34.29131 -93.63584 35788 ft 359 kts 252°
2026-05-06 01:09 34.27149 -93.69122 35790 ft 359 kts 252°
2026-05-06 01:10 34.25161 -93.74652 35790 ft 359 kts 252°
2026-05-06 01:10 34.23174 -93.80186 35787 ft 359 kts 252°
2026-05-06 01:11 34.21185 -93.85719 35788 ft 359 kts 252°
2026-05-06 01:11 34.19199 -93.91254 35783 ft 358 kts 253°
2026-05-06 01:12 34.17432 -93.96872 35787 ft 358 kts 255°
2026-05-06 01:12 34.15768 -94.02528 35787 ft 357 kts 255°
2026-05-06 01:13 34.14075 -94.08171 35786 ft 358 kts 255°
2026-05-06 01:13 34.12346 -94.13804 35790 ft 358 kts 255°
2026-05-06 01:14 34.09740 -94.22254 35791 ft 358 kts 255°
2026-05-06 01:14 34.08002 -94.27884 35790 ft 358 kts 255°
2026-05-06 01:15 34.06260 -94.33501 35789 ft 357 kts 255°
2026-05-06 01:15 34.04519 -94.39112 35785 ft 357 kts 255°
2026-05-06 01:16 34.02783 -94.44719 35787 ft 357 kts 255°
2026-05-06 01:16 34.01041 -94.50319 35786 ft 356 kts 254°
2026-05-06 01:17 33.99298 -94.55904 35785 ft 356 kts 254°
2026-05-06 01:17 33.97556 -94.61493 35781 ft 356 kts 255°
2026-05-06 01:18 33.95810 -94.67087 35787 ft 357 kts 254°
2026-05-06 01:18 33.94060 -94.72673 35781 ft 357 kts 254°
2026-05-06 01:19 33.92300 -94.78261 35783 ft 357 kts 254°
2026-05-06 01:19 33.90537 -94.83856 35784 ft 357 kts 254°
2026-05-06 01:20 33.88778 -94.89445 35789 ft 357 kts 254°
2026-05-06 01:20 33.87014 -94.95030 35794 ft 357 kts 253°
2026-05-06 01:21 33.85259 -95.00611 35792 ft 356 kts 253°
2026-05-06 01:21 33.83497 -95.06175 35796 ft 356 kts 253°
2026-05-06 01:22 33.81724 -95.11735 35796 ft 356 kts 253°
2026-05-06 01:22 33.79960 -95.17282 35804 ft 355 kts 253°
2026-05-06 01:23 33.78199 -95.22823 35805 ft 355 kts 253°
2026-05-06 01:23 33.76437 -95.28355 35810 ft 354 kts 253°
2026-05-06 01:24 33.74664 -95.33879 35812 ft 354 kts 253°
2026-05-06 01:24 33.72892 -95.39389 35816 ft 353 kts 253°
2026-05-06 01:25 33.71113 -95.44883 35817 ft 353 kts 253°
2026-05-06 01:25 33.69335 -95.50368 35813 ft 352 kts 253°
2026-05-06 01:26 33.67564 -95.55850 35586 ft 351 kts 253°
2026-05-06 01:26 33.66680 -95.58578 35337 ft 351 kts 253°
2026-05-06 01:26 33.65792 -95.61314 35082 ft 352 kts 253°
2026-05-06 01:27 33.64904 -95.64050 34585 ft 352 kts 253°
2026-05-06 01:27 33.64015 -95.66785 33944 ft 351 kts 253°
2026-05-06 01:27 33.63127 -95.69515 33192 ft 352 kts 253°
2026-05-06 01:27 33.62229 -95.72266 32373 ft 355 kts 252°
2026-05-06 01:28 33.61325 -95.75037 31539 ft 358 kts 252°
2026-05-06 01:28 33.60413 -95.77831 30715 ft 360 kts 252°
2026-05-06 01:28 33.59493 -95.80642 29786 ft 364 kts 251°
2026-05-06 01:28 33.58566 -95.83469 29215 ft 365 kts 251°
2026-05-06 01:29 33.57635 -95.86312 28702 ft 366 kts 251°
2026-05-06 01:29 33.56701 -95.89153 28157 ft 366 kts 251°
2026-05-06 01:29 33.55770 -95.91982 27613 ft 364 kts 251°
2026-05-06 01:29 33.54843 -95.94798 27075 ft 363 kts 251°
2026-05-06 01:30 33.53928 -95.97573 26542 ft 362 kts 251°
2026-05-06 01:30 33.52991 -96.00406 25992 ft 360 kts 251°
2026-05-06 01:30 33.52086 -96.03163 25462 ft 360 kts 251°
2026-05-06 01:30 33.51175 -96.05945 24925 ft 358 kts 250°
2026-05-06 01:31 33.50264 -96.08715 24394 ft 357 kts 250°
2026-05-06 01:31 33.49355 -96.11472 23856 ft 356 kts 250°
2026-05-06 01:31 33.48446 -96.14221 23329 ft 354 kts 250°
2026-05-06 01:31 33.47543 -96.16955 22801 ft 351 kts 250°
2026-05-06 01:32 33.46648 -96.19662 22275 ft 349 kts 250°
2026-05-06 01:32 33.45760 -96.22348 22050 ft 345 kts 250°
2026-05-06 01:32 33.44824 -96.24991 21956 ft 346 kts 244°
2026-05-06 01:32 33.43487 -96.27397 21627 ft 350 kts 234°
2026-05-06 01:33 33.41901 -96.29591 21249 ft 345 kts 233°
2026-05-06 01:33 33.40342 -96.31719 20974 ft 337 kts 233°
2026-05-06 01:33 33.38808 -96.33814 20542 ft 333 kts 233°
2026-05-06 01:33 33.37292 -96.35894 20088 ft 330 kts 233°
2026-05-06 01:34 33.35796 -96.37950 19582 ft 326 kts 232°
2026-05-06 01:34 33.34318 -96.39986 18961 ft 322 kts 232°
2026-05-06 01:34 33.32859 -96.41997 18427 ft 319 kts 232°
2026-05-06 01:34 33.31414 -96.43991 17975 ft 315 kts 232°
2026-05-06 01:35 33.29996 -96.45969 17588 ft 311 kts 232°
2026-05-06 01:35 33.28602 -96.47931 17313 ft 310 kts 232°
2026-05-06 01:35 33.27213 -96.49892 16922 ft 308 kts 232°
2026-05-06 01:35 33.25803 -96.51814 16630 ft 308 kts 231°
2026-05-06 01:36 33.24373 -96.53711 16327 ft 307 kts 231°
2026-05-06 01:36 33.22932 -96.55600 16022 ft 307 kts 230°
2026-05-06 01:36 33.21491 -96.57479 15718 ft 306 kts 230°
2026-05-06 01:36 33.20073 -96.59332 15472 ft 299 kts 230°
2026-05-06 01:37 33.18681 -96.61149 15123 ft 295 kts 230°
2026-05-06 01:37 33.17309 -96.62955 14795 ft 293 kts 231°
2026-05-06 01:37 33.15964 -96.64783 14413 ft 292 kts 231°
2026-05-06 01:37 33.14640 -96.66619 14039 ft 291 kts 231°
2026-05-06 01:38 33.13323 -96.68445 13666 ft 290 kts 231°
2026-05-06 01:38 33.12008 -96.70266 13374 ft 287 kts 231°
2026-05-06 01:38 33.10717 -96.72035 13251 ft 278 kts 231°
2026-05-06 01:38 33.09470 -96.73742 13124 ft 269 kts 231°
2026-05-06 01:39 33.08262 -96.75397 12995 ft 261 kts 231°
2026-05-06 01:39 33.07083 -96.77005 12884 ft 256 kts 231°
2026-05-06 01:39 33.05913 -96.78598 12828 ft 255 kts 231°
2026-05-06 01:39 33.04746 -96.80185 12736 ft 255 kts 231°
2026-05-06 01:40 33.03583 -96.81772 12626 ft 254 kts 231°
2026-05-06 01:40 33.02415 -96.83354 12507 ft 254 kts 231°
2026-05-06 01:40 33.01248 -96.84926 12382 ft 253 kts 230°
2026-05-06 01:40 33.00098 -96.86474 12277 ft 246 kts 231°
2026-05-06 01:41 32.98985 -96.87978 12177 ft 238 kts 231°
2026-05-06 01:41 32.97870 -96.89381 12065 ft 231 kts 221°
2026-05-06 01:41 32.96455 -96.90267 11932 ft 233 kts 201°
2026-05-06 01:41 32.94826 -96.90498 11702 ft 238 kts 191°
2026-05-06 01:42 32.93187 -96.90603 11493 ft 236 kts 191°
2026-05-06 01:42 32.91542 -96.90710 11177 ft 238 kts 190°
2026-05-06 01:42 32.89865 -96.90831 10703 ft 245 kts 190°
2026-05-06 01:42 32.88130 -96.90963 10222 ft 255 kts 189°
2026-05-06 01:43 32.86334 -96.91100 9745 ft 261 kts 189°
2026-05-06 01:43 32.84473 -96.91230 9249 ft 267 kts 188°
2026-05-06 01:43 32.82626 -96.91358 8787 ft 272 kts 188°
2026-05-06 01:43 32.80724 -96.91493 8307 ft 276 kts 187°
2026-05-06 01:44 32.78795 -96.91616 7829 ft 280 kts 186°
2026-05-06 01:44 32.76853 -96.91651 7514 ft 276 kts 184°
2026-05-06 01:44 32.74973 -96.91636 7251 ft 266 kts 183°
2026-05-06 01:44 32.73159 -96.91608 6957 ft 256 kts 183°
2026-05-06 01:45 32.71404 -96.91587 6659 ft 248 kts 184°
2026-05-06 01:45 32.69710 -96.91573 6354 ft 239 kts 184°
2026-05-06 01:45 32.68072 -96.91566 6055 ft 232 kts 184°
2026-05-06 01:45 32.66477 -96.91557 5754 ft 227 kts 183°
2026-05-06 01:46 32.64938 -96.91691 5441 ft 218 kts 201°
2026-05-06 01:46 32.63740 -96.92663 5144 ft 208 kts 234°
2026-05-06 01:46 32.63249 -96.94258 4878 ft 209 kts 261°
2026-05-06 01:46 32.63174 -96.95414 4725 ft 208 kts 264°
2026-05-06 01:47 32.63125 -96.97104 4576 ft 202 kts 266°
2026-05-06 01:47 32.63114 -96.98730 4468 ft 193 kts 267°
2026-05-06 01:47 32.63346 -97.00279 4348 ft 195 kts 295°
2026-05-06 01:47 32.64316 -97.01426 4267 ft 203 kts 323°
2026-05-06 01:48 32.65582 -97.02204 4167 ft 206 kts 334°
2026-05-06 01:48 32.66966 -97.02656 4077 ft 209 kts 351°
2026-05-06 01:48 32.68426 -97.02721 4025 ft 210 kts 356°
2026-05-06 01:48 32.69889 -97.02716 3985 ft 211 kts 357°
2026-05-06 01:49 32.71349 -97.02705 3785 ft 208 kts 357°
2026-05-06 01:49 32.72797 -97.02698 3505 ft 207 kts 357°
2026-05-06 01:49 32.74215 -97.02690 3240 ft 206 kts 357°
2026-05-06 01:49 32.75655 -97.02682 2970 ft 203 kts 358°
2026-05-06 01:50 32.77067 -97.02675 2701 ft 202 kts 359°
2026-05-06 01:50 32.78451 -97.02668 2436 ft 202 kts
2026-05-06 01:50 32.79827 -97.02660 2171 ft 195 kts
2026-05-06 01:50 32.81143 -97.02654 1933 ft 181 kts
2026-05-06 01:51 32.82325 -97.02648 1692 ft 160 kts
2026-05-06 01:51 32.83382 -97.02644 1484 ft 145 kts
2026-05-06 01:51 32.84355 -97.02640 1301 ft 135 kts
2026-05-06 01:51 32.85279 -97.02631 1153 ft 131 kts
2026-05-06 01:52 32.86170 -97.02626 955 ft 127 kts
2026-05-06 01:52 32.87053 -97.02624 795 ft 128 kts
2026-05-06 01:52 32.87937 -97.02617 627 ft 127 kts
2026-05-06 01:52 32.88772 -97.02606 578 ft 102 kts
2026-05-06 01:53 32.89312 -97.02611 574 ft 52 kts 359°
2026-05-06 01:53 32.89624 -97.02613 574 ft 43 kts
2026-05-06 01:53 32.89876 -97.02644 572 ft 31 kts 337°
2026-05-06 01:53 32.90000 -97.02727 573 ft 15 kts 328°
2026-05-06 01:54 32.90092 -97.02791 574 ft 18 kts 334°
2026-05-06 01:54 32.90234 -97.02802 578 ft 22 kts
2026-05-06 01:54 32.90388 -97.02798 579 ft 21 kts
2026-05-06 01:54 32.90468 -97.02860 578 ft 16 kts 272°
2026-05-06 01:55 32.90467 -97.03017 571 ft 22 kts 269°
2026-05-06 01:55 32.90466 -97.03199 575 ft 20 kts 271°
2026-05-06 01:55 32.90469 -97.03327 586 ft 12 kts 272°
2026-05-06 01:55 32.90502 -97.03406 587 ft 13 kts 350°
2026-05-06 01:56 32.90594 -97.03410 587 ft 10 kts 341°
2026-05-06 01:56 32.90629 -97.03465 587 ft 8 kts 274°
2026-05-06 01:56 32.90620 -97.03524 587 ft 4 kts 249°
2026-05-06 01:56 32.90614 -97.03539 587 ft 0 kts 248°